Osceola, WI

1:26 AM CDT on September 24, 2017 (GMT -0500)
Simenstad Municipal

Weather History for KOEO - October, 2013

Change the Weather History Date:

Monday, October 7, 2013

  Actual Average (KANE) Record (KANE)
Temperature  
Mean Temperature 50 °F -  
Max Temperature 64 °F 60 °F 84 °F (2003)
Min Temperature 36 °F 40 °F 24 °F (2012)
Degree Days  
Heating Degree Days 15    
Moisture  
Dew Point 41 °F    
Average Humidity 82    
Maximum Humidity 100    
Minimum Humidity 33    
Precipitation  
Precipitation 0.01 in - - ()
Sea Level Pressure  
Sea Level Pressure 29.94 in    
Wind  
Wind Speed 2 mph (WNW)    
Max Wind Speed 10 mph    
Max Gust Speed 21 mph    
Visibility 8 miles    
Events Fog    
Averages and records for this station are not official NWS values.
T = Trace of Precipitation, MM = Missing Value Source: NWS Daily Summary

Daily Weather History Graph

Daily Weather History Graph

Search for Another Location

Airport or City:

Trip Planner

Search our weather history database for the weather conditions in past years. The results will help you decide how hot, cold, wet, or windy it might be!

Date:

Astronomy

Oct. 07, 2013 Rise Set
Actual Time 7:16 AM CDT 6:39 PM CDT
Civil Twilight 6:47 AM CDT 7:08 PM CDT
Nautical Twilight 6:13 AM CDT 7:42 PM CDT
Astronomical Twilight 5:38 AM CDT 8:17 PM CDT
Moon 10:16 AM CDT (10/7) 8:15 PM CDT (10/7)
Length of Visible Light 12h 21m
Length of Day
11h 22m
Waxing Crescent, 9% of the Moon is Illuminated
Oct 7
Waxing Crescent
Oct 11
First Quarter
Oct 18
Full
Oct 26
Last Quarter
Nov 3
New

Hourly Weather History & Observations

Time (CDT) Temp. Windchill Dew Point Humidity Pressure Visibility Wind Dir Wind Speed Gust Speed Precip Events Conditions
12:15 AM 41.9 °F 40.0 °F 41.9 °F 100% 29.85 in 3.0 mi WSW 3.5 mph - N/A   Clear
12:35 AM 41.2 °F 38.2 °F 41.2 °F 100% 29.85 in 7.0 mi West 4.6 mph - N/A   Clear
12:55 AM 42.4 °F - 42.4 °F 100% 29.85 in 10.0 mi Calm Calm - N/A   Clear
1:15 AM 39.9 °F - 39.9 °F 100% 29.85 in 1.2 mi Calm Calm - N/A   Mist
1:35 AM 40.1 °F - 40.1 °F 100% 29.85 in 1.0 mi Calm Calm - N/A   Mostly Cloudy
1:55 AM 39.4 °F - 39.4 °F 100% 29.86 in 10.0 mi Calm Calm - N/A   Mostly Cloudy
2:15 AM 39.7 °F - 39.7 °F 100% 29.85 in 10.0 mi Calm Calm - N/A   Scattered Clouds
2:35 AM 39.2 °F - 39.2 °F 100% 29.85 in 4.0 mi Calm Calm - N/A   Clear
2:55 AM 38.5 °F - 38.5 °F 100% 29.85 in 7.0 mi Calm Calm - N/A   Clear
3:15 AM 39.0 °F - 39.0 °F 100% 29.85 in 1.2 mi Calm Calm - N/A   Scattered Clouds
3:35 AM 38.7 °F - 38.7 °F 100% 29.85 in 7.0 mi Calm Calm - N/A   Mostly Cloudy
3:55 AM 39.2 °F - 39.2 °F 100% 29.85 in 10.0 mi Calm Calm - N/A   Mostly Cloudy
4:15 AM 39.7 °F - 39.7 °F 100% 29.85 in 10.0 mi Calm Calm - N/A   Mostly Cloudy
4:35 AM 39.6 °F - 39.6 °F 100% 29.85 in 10.0 mi Calm Calm - N/A   Mostly Cloudy
4:55 AM 39.0 °F - 39.0 °F 100% 29.86 in 10.0 mi Calm Calm - N/A   Mostly Cloudy
5:15 AM 38.5 °F - 38.5 °F 100% 29.86 in 5.0 mi Calm Calm - N/A   Mostly Cloudy
5:35 AM 38.7 °F - 38.7 °F 100% 29.86 in 2.0 mi Calm Calm - N/A   Overcast
5:55 AM 39.2 °F - 39.2 °F 100% 29.87 in 10.0 mi Calm Calm - N/A   Overcast
6:15 AM 39.0 °F - 39.0 °F 100% 29.87 in 4.0 mi Calm Calm - N/A   Mostly Cloudy
6:35 AM 38.7 °F - 38.7 °F 100% 29.88 in 0.8 mi Calm Calm - N/A   Overcast
6:55 AM 38.3 °F - 38.3 °F 100% 29.88 in 1.2 mi Calm Calm - N/A   Overcast
7:15 AM 37.4 °F - 37.4 °F 100% 29.89 in 0.2 mi Calm Calm - N/A Fog Fog
7:35 AM 36.5 °F - 36.5 °F 100% 29.90 in 0.2 mi Calm Calm - N/A Fog Fog
7:55 AM 37.0 °F - 37.0 °F 100% 29.91 in 0.2 mi Calm Calm - 0.01 in Fog Fog
8:15 AM 38.5 °F - 38.5 °F 100% 29.91 in 0.2 mi Calm Calm - N/A Fog Fog
8:35 AM 41.7 °F - 41.7 °F 100% 29.92 in 0.5 mi Calm Calm - N/A Fog Fog
8:55 AM 44.6 °F - 44.6 °F 100% 29.93 in 10.0 mi Calm Calm - N/A   Scattered Clouds
9:15 AM 46.2 °F 45.0 °F 46.2 °F 100% 29.94 in 10.0 mi West 3.5 mph - N/A   Clear
9:35 AM 47.5 °F - 47.5 °F 100% 29.95 in 10.0 mi NW 4.6 mph - N/A   Clear
9:55 AM 49.6 °F - 46.6 °F 89% 29.96 in 10.0 mi NW 4.6 mph - N/A   Clear
10:15 AM 50.9 °F - 47.1 °F 87% 29.96 in 10.0 mi NNW 4.6 mph - N/A   Clear
10:35 AM 52.2 °F - 48.2 °F 86% 29.96 in 10.0 mi NNW 4.6 mph - N/A   Clear
10:55 AM 54.0 °F - 47.7 °F 79% 29.97 in 10.0 mi North 3.5 mph - N/A   Clear
11:15 AM 54.9 °F - 47.8 °F 77% 29.97 in 10.0 mi NNW 3.5 mph - N/A   Clear
11:35 AM 55.8 °F - 46.8 °F 72% 29.98 in 10.0 mi North 3.5 mph - N/A   Clear
11:55 AM 57.0 °F - 46.8 °F 69% 29.98 in 10.0 mi North 3.5 mph - N/A   Clear
12:15 PM 58.3 °F - 45.9 °F 63% 29.98 in 10.0 mi NW 4.6 mph - N/A   Clear
12:35 PM 60.1 °F - 45.3 °F 58% 29.98 in 10.0 mi NW 9.2 mph - N/A   Clear
12:55 PM 60.3 °F - 44.2 °F 55% 29.98 in 10.0 mi NNW 5.8 mph - N/A   Clear
1:15 PM 61.2 °F - 43.0 °F 51% 29.98 in 10.0 mi WNW 8.1 mph - N/A   Clear
1:35 PM 62.6 °F - 42.3 °F 47% 29.98 in 10.0 mi West 10.4 mph - N/A   Clear
2:35 PM 62.8 °F - 40.6 °F 44% 29.97 in 10.0 mi WNW 4.6 mph - N/A   Clear
2:55 PM 63.9 °F - 41.4 °F 44% 29.98 in 10.0 mi WNW 8.1 mph - N/A   Clear
3:15 PM 64.0 °F - 40.8 °F 43% 29.98 in 10.0 mi NNW 6.9 mph - N/A   Clear
3:35 PM 64.8 °F - 39.0 °F 39% 29.98 in 10.0 mi WNW 5.8 mph 20.7 mph N/A   Clear
3:55 PM 64.4 °F - 38.5 °F 38% 29.98 in 10.0 mi West 5.8 mph - N/A   Clear
4:15 PM 64.2 °F - 35.4 °F 34% 29.98 in 10.0 mi West 5.8 mph - N/A   Clear
4:35 PM 64.4 °F - 34.9 °F 33% 29.98 in 10.0 mi NW 5.8 mph - N/A   Clear
4:55 PM 64.0 °F - 36.7 °F 36% 29.98 in 10.0 mi Calm Calm - N/A   Clear
5:15 PM 63.9 °F - 36.7 °F 37% 29.98 in 10.0 mi West 3.5 mph - N/A   Clear
5:35 PM 63.5 °F - 37.0 °F 38% 29.98 in 10.0 mi West 6.9 mph - N/A   Clear
5:55 PM 62.2 °F - 37.6 °F 40% 29.98 in 10.0 mi West 3.5 mph - N/A   Clear
6:15 PM 61.7 °F - 37.8 °F 41% 29.98 in 10.0 mi Calm Calm - N/A   Clear
6:35 PM 59.0 °F - 39.6 °F 49% 29.98 in 10.0 mi SSW 3.5 mph - N/A   Clear
6:55 PM 52.7 °F - 42.4 °F 68% 29.99 in 10.0 mi Calm Calm - N/A   Clear
7:15 PM 50.4 °F - 42.8 °F 75% 29.99 in 10.0 mi Calm Calm - N/A   Clear
7:35 PM 48.4 °F - 44.6 °F 87% 30.00 in 10.0 mi Calm Calm - N/A   Clear
7:55 PM 48.4 °F - 45.0 °F 88% 30.00 in 10.0 mi Calm Calm - N/A   Clear
8:15 PM 47.3 °F - 44.8 °F 91% 30.01 in 10.0 mi ESE 3.5 mph - N/A   Clear
8:35 PM 46.0 °F - 44.8 °F 95% 30.01 in 10.0 mi Calm Calm - N/A   Clear
8:55 PM 45.3 °F - 44.8 °F 98% 30.01 in 10.0 mi Calm Calm - N/A   Clear
9:15 PM 45.1 °F - 44.4 °F 97% 30.02 in 10.0 mi Calm Calm - N/A   Clear
9:35 PM 44.1 °F - 43.2 °F 97% 30.01 in 10.0 mi Calm Calm - N/A   Clear
9:55 PM 43.9 °F - 43.3 °F 98% 30.02 in 10.0 mi Calm Calm - N/A   Clear
10:15 PM 43.5 °F 41.9 °F 43.0 °F 98% 30.01 in 10.0 mi ESE 3.5 mph - N/A   Clear
10:35 PM 43.7 °F - 42.8 °F 97% 30.01 in 10.0 mi Calm Calm - N/A   Clear
10:55 PM 43.3 °F - 42.4 °F 97% 30.01 in 10.0 mi Calm Calm - N/A   Clear
11:15 PM 43.2 °F - 42.6 °F 98% 30.01 in 10.0 mi Calm Calm - N/A   Clear
11:35 PM 42.3 °F - 41.7 °F 98% 30.01 in 10.0 mi Calm Calm - N/A   Clear
11:55 PM 43.3 °F - 42.4 °F 97% 30.01 in 10.0 mi Calm Calm - N/A   Clear